When you browse on this site, cookies collect data to enhance your experience and personalize the content and advertising you see.
Visit our Privacy Policy to learn more. By continuing to use the site, you agree to this use of cookies and data.
EN

Hourly Weather Polozy

Today, 28 September, Monday

Time Temperature Precipitation Wind Pressure Humidity
00:00 +13°C° 0 mm 3 mps 757 mmHg 74%
01:00 +12°C° 0 mm 3 mps 757 mmHg 78%
02:00 +12°C° 0 mm 3 mps 757 mmHg 82%
03:00 +12°C° 0 mm 3 mps 757 mmHg 82%
04:00 +12°C° 0 mm 3 mps 756 mmHg 82%
05:00 +13°C° 0 mm 4 mps 756 mmHg 82%
06:00 +13°C° 0 mm 4 mps 756 mmHg 82%
07:00 +13°C° 0 mm 4 mps 756 mmHg 82%
08:00 +13°C° 0 mm 4 mps 756 mmHg 82%
09:00 +13°C° 0 mm 4 mps 756 mmHg 79%
10:00 +13°C° 0 mm 4 mps 756 mmHg 76%
11:00 +13°C° 0 mm 4 mps 756 mmHg 73%
12:00 +13°C° 0 mm 3 mps 756 mmHg 71%
13:00 +13°C° 0 mm 3 mps 756 mmHg 69%
14:00 +13°C° 0 mm 3 mps 756 mmHg 67%
15:00 +13°C° 0 mm 3 mps 757 mmHg 71%
16:00 +14°C° 0 mm 2 mps 757 mmHg 74%
17:00 +14°C° 0 mm 2 mps 757 mmHg 78%
18:00 +14°C° 0 mm 2 mps 757 mmHg 81%
19:00 +14°C° 0 mm 2 mps 757 mmHg 84%
20:00 +12°C° 0 mm 3 mps 757 mmHg 88%
21:00 +13°C° 0 mm 2 mps 757 mmHg 89%
22:00 +12°C° 0 mm 2 mps 757 mmHg 90%
23:00 +12°C° 0 mm 2 mps 757 mmHg 92%

Tomorrow, 29 September, Tuesday

Time Temperature Precipitation Wind Pressure Humidity
00:00 +12°C° 0 mm 2 mps 757 mmHg 92%
01:00 +12°C° 0 mm 1 mps 757 mmHg 92%
02:00 +12°C° 0 mm 1 mps 758 mmHg 92%
03:00 +12°C° 0.1 mm 1 mps 757 mmHg 93%
04:00 +12°C° 0.1 mm 1 mps 757 mmHg 94%
05:00 +12°C° 0.1 mm 1 mps 757 mmHg 95%
06:00 +12°C° 0.2 mm 1 mps 757 mmHg 95%
07:00 +12°C° 0.2 mm 1 mps 758 mmHg 94%
08:00 +12°C° 0.2 mm 2 mps 758 mmHg 94%
09:00 +13°C° 0.1 mm 1 mps 758 mmHg 93%
10:00 +13°C° 0.1 mm 1 mps 758 mmHg 91%
11:00 +14°C° 0.1 mm 1 mps 758 mmHg 89%
12:00 +15°C° 0 mm 1 mps 758 mmHg 82%
13:00 +16°C° 0 mm 1 mps 758 mmHg 75%
14:00 +18°C° 0 mm 1 mps 758 mmHg 67%
15:00 +16°C° 0 mm 1 mps 758 mmHg 70%
16:00 +16°C° 0 mm 1 mps 758 mmHg 73%
17:00 +14°C° 0 mm 0 mps 758 mmHg 76%
18:00 +14°C° 0 mm 1 mps 758 mmHg 81%
19:00 +13°C° 0 mm 1 mps 758 mmHg 85%
20:00 +12°C° 0 mm 1 mps 758 mmHg 90%
21:00 +11°C° 0 mm 1 mps 758 mmHg 90%
22:00 +11°C° 0 mm 1 mps 758 mmHg 91%
23:00 +10°C° 0 mm 1 mps 758 mmHg 92%

Day after tomorrow, 30 September, Wednesday

Time Temperature Precipitation Wind Pressure Humidity
00:00 +10°C° 0 mm 1 mps 758 mmHg 93%
01:00 +10°C° 0 mm 1 mps 758 mmHg 93%
02:00 +9°C° 0 mm 1 mps 757 mmHg 94%
03:00 +9°C° 0 mm 1 mps 757 mmHg 94%
04:00 +8°C° 0 mm 2 mps 757 mmHg 95%
05:00 +8°C° 0 mm 2 mps 757 mmHg 96%
06:00 +9°C° 0 mm 2 mps 757 mmHg 94%
07:00 +9°C° 0 mm 2 mps 757 mmHg 92%
08:00 +10°C° 0 mm 2 mps 757 mmHg 90%
09:00 +13°C° 0 mm 2 mps 757 mmHg 82%
10:00 +15°C° 0 mm 2 mps 757 mmHg 75%
11:00 +16°C° 0 mm 2 mps 757 mmHg 67%
12:00 +17°C° 0 mm 2 mps 756 mmHg 64%
13:00 +18°C° 0 mm 3 mps 756 mmHg 60%
14:00 +19°C° 0 mm 3 mps 756 mmHg 57%
15:00 +17°C° 0 mm 3 mps 756 mmHg 61%
16:00 +16°C° 0 mm 2 mps 756 mmHg 66%
17:00 +15°C° 0 mm 2 mps 756 mmHg 71%
18:00 +15°C° 0 mm 2 mps 756 mmHg 72%
19:00 +14°C° 0 mm 2 mps 756 mmHg 74%
20:00 +13°C° 0 mm 2 mps 756 mmHg 75%
21:00 +13°C° 0 mm 2 mps 756 mmHg 75%
22:00 +12°C° 0 mm 2 mps 756 mmHg 74%
23:00 +12°C° 0 mm 2 mps 756 mmHg 74%

1 October, Thursday

Time Temperature Precipitation Wind Pressure Humidity
00:00 +10°C° 0 mm 2 mps 756 mmHg 77%
01:00 +10°C° 0 mm 2 mps 756 mmHg 79%
02:00 +9°C° 0 mm 2 mps 756 mmHg 82%
03:00 +8°C° 0 mm 2 mps 756 mmHg 83%
04:00 +8°C° 0 mm 2 mps 756 mmHg 83%
05:00 +7°C° 0 mm 2 mps 756 mmHg 84%
06:00 +8°C° 0 mm 2 mps 756 mmHg 80%
07:00 +9°C° 0 mm 3 mps 756 mmHg 76%
08:00 +9°C° 0 mm 3 mps 756 mmHg 72%
09:00 +11°C° 0 mm 3 mps 756 mmHg 67%
10:00 +13°C° 0 mm 3 mps 756 mmHg 61%
11:00 +16°C° 0 mm 3 mps 756 mmHg 56%
12:00 +16°C° 0 mm 3 mps 756 mmHg 55%
13:00 +17°C° 0 mm 4 mps 756 mmHg 53%
14:00 +18°C° 0 mm 4 mps 756 mmHg 51%
15:00 +17°C° 0 mm 3 mps 756 mmHg 56%
16:00 +16°C° 0 mm 3 mps 756 mmHg 61%
17:00 +14°C° 0 mm 3 mps 755 mmHg 66%
18:00 +13°C° 0 mm 3 mps 756 mmHg 66%
19:00 +13°C° 0 mm 3 mps 756 mmHg 67%
20:00 +12°C° 0 mm 3 mps 756 mmHg 68%
21:00 +12°C° 0 mm 3 mps 756 mmHg 68%
22:00 +12°C° 0 mm 3 mps 756 mmHg 67%
23:00 +12°C° 0 mm 3 mps 755 mmHg 66%

2 October, Friday

Time Temperature Precipitation Wind Pressure Humidity
00:00 +12°C° 0 mm 3 mps 755 mmHg 68%
01:00 +11°C° 0 mm 3 mps 755 mmHg 70%
02:00 +11°C° 0 mm 3 mps 755 mmHg 72%
03:00 +10°C° 0 mm 3 mps 755 mmHg 72%
04:00 +10°C° 0 mm 3 mps 755 mmHg 72%
05:00 +10°C° 0 mm 3 mps 755 mmHg 71%
06:00 +10°C° 0 mm 3 mps 755 mmHg 70%
07:00 +10°C° 0 mm 3 mps 755 mmHg 68%
08:00 +11°C° 0 mm 4 mps 755 mmHg 66%
09:00 +12°C° 0 mm 4 mps 755 mmHg 64%
10:00 +13°C° 0 mm 4 mps 755 mmHg 62%
11:00 +13°C° 0 mm 4 mps 755 mmHg 60%
12:00 +14°C° 0 mm 4 mps 755 mmHg 57%
13:00 +15°C° 0 mm 5 mps 755 mmHg 55%
14:00 +16°C° 0 mm 5 mps 755 mmHg 52%
15:00 +15°C° 0 mm 4 mps 755 mmHg 56%
16:00 +14°C° 0 mm 4 mps 755 mmHg 60%
17:00 +13°C° 0 mm 3 mps 755 mmHg 64%
18:00 +13°C° 0.1 mm 3 mps 755 mmHg 68%
19:00 +12°C° 0.1 mm 3 mps 755 mmHg 73%
20:00 +12°C° 0.1 mm 4 mps 755 mmHg 77%
21:00 +11°C° 0 mm 4 mps 755 mmHg 78%
22:00 +11°C° 0 mm 3 mps 755 mmHg 78%
23:00 +11°C° 0 mm 3 mps 755 mmHg 79%

3 October, Saturday

Time Temperature Precipitation Wind Pressure Humidity
00:00 +11°C° 0 mm 3 mps 755 mmHg 81%
01:00 +10°C° 0 mm 3 mps 755 mmHg 84%
02:00 +10°C° 0 mm 3 mps 755 mmHg 87%
03:00 +10°C° 0 mm 3 mps 755 mmHg 85%
04:00 +10°C° 0 mm 3 mps 755 mmHg 83%
05:00 +10°C° 0 mm 3 mps 756 mmHg 81%
06:00 +10°C° 0 mm 3 mps 756 mmHg 80%
07:00 +11°C° 0 mm 3 mps 756 mmHg 79%
08:00 +12°C° 0 mm 3 mps 756 mmHg 77%
09:00 +12°C° 0 mm 3 mps 756 mmHg 77%
10:00 +13°C° 0 mm 3 mps 756 mmHg 77%
11:00 +13°C° 0 mm 4 mps 756 mmHg 76%
12:00 +14°C° 0 mm 4 mps 756 mmHg 74%
13:00 +14°C° 0 mm 4 mps 756 mmHg 71%
14:00 +15°C° 0 mm 4 mps 755 mmHg 69%
15:00 +14°C° 0 mm 4 mps 755 mmHg 72%
16:00 +13°C° 0 mm 3 mps 755 mmHg 75%
17:00 +13°C° 0 mm 3 mps 755 mmHg 78%
18:00 +12°C° 0 mm 3 mps 755 mmHg 82%
19:00 +11°C° 0 mm 3 mps 755 mmHg 85%
20:00 +10°C° 0 mm 2 mps 755 mmHg 89%
21:00 +10°C° 0 mm 2 mps 755 mmHg 90%
22:00 +10°C° 0 mm 2 mps 755 mmHg 92%
23:00 +10°C° 0 mm 2 mps 755 mmHg 93%
Show more